Weather History for Kremmling, CO

Change the Weather History Date:

Monday, May 5, 2014

  Actual Average (KEGE) Record (KEGE)
Temperature  
Mean Temperature 52 °F -  
Max Temperature 73 °F 64 °F 83 °F (1966)
Min Temperature 30 °F 31 °F 19 °F (1953)
Degree Days  
Heating Degree Days 14    
Growing Degree Days 2 (Base 50)    
Moisture  
Dew Point 8 °F    
Average Humidity 24    
Maximum Humidity 64    
Minimum Humidity 5    
Precipitation  
Precipitation 0.00 in - - ()
Sea Level Pressure  
Sea Level Pressure 30.00 in    
Wind  
Wind Speed 6 mph (SW)    
Max Wind Speed 23 mph    
Max Gust Speed 30 mph    
Visibility 10 miles    
Events      
Averages and records for this station are not official NWS values.
T = Trace of Precipitation, MM = Missing Value Source: NWS Daily Summary

Daily Weather History Graph

Daily Weather History Graph

Search for Another Location

Airport:

Trip Planner

Search our weather history database for the weather conditions in past years. The results will help you decide how hot, cold, wet, or windy it might be!

Date:

Astronomy

May. 05, 2014 Rise Set
Actual Time 6:00 AM MDT 8:04 PM MDT
Civil Twilight 5:30 AM MDT 8:34 PM MDT
Nautical Twilight 4:54 AM MDT 9:10 PM MDT
Astronomical Twilight 4:15 AM MDT 9:50 PM MDT
Moon 11:22 AM MDT (5/5) 12:50 AM MDT (5/5)
Length of Visible Light 15h 03m
Length of Day
14h 03m
Waxing Crescent, 37% of the Moon is Illuminated
May 5
Waxing Crescent
May 6
First Quarter
May 14
Full
May 21
Last Quarter
May 28
New

Hourly Weather History & Observations

Time (MDT) Temp. Windchill Dew Point Humidity Pressure Visibility Wind Dir Wind Speed Gust Speed Precip Events Conditions
12:16 AM 44.6 °F 41.4 °F 14.0 °F 29% 30.06 in 10.0 mi ENE 5.8 mph - N/A   Clear
12:35 AM 44.6 °F - 14.0 °F 29% 30.06 in 10.0 mi Calm Calm - N/A   Clear
12:55 AM 42.8 °F - 15.8 °F 34% 30.06 in 10.0 mi Calm Calm - N/A   Clear
1:16 AM 41.0 °F - 14.0 °F 33% 30.06 in 10.0 mi Calm Calm - N/A   Clear
1:36 AM 41.0 °F - 14.0 °F 33% 30.06 in 10.0 mi Calm Calm - N/A   Clear
1:56 AM 37.4 °F - 15.8 °F 41% 30.06 in 10.0 mi Calm Calm - N/A   Clear
2:16 AM 37.4 °F 32.8 °F 17.6 °F 45% 30.06 in 10.0 mi East 5.8 mph - N/A   Clear
2:36 AM 41.0 °F 39.0 °F 15.8 °F 36% 30.06 in 10.0 mi ESE 3.5 mph - N/A   Clear
2:57 AM 37.4 °F 34.9 °F 17.6 °F 45% 30.06 in 10.0 mi ESE 3.5 mph - N/A   Clear
3:16 AM 39.2 °F 33.6 °F 15.8 °F 39% 30.06 in 10.0 mi ESE 8.1 mph - N/A   Clear
3:36 AM 37.4 °F 34.9 °F 15.8 °F 41% 30.06 in 10.0 mi ESE 3.5 mph - N/A   Clear
3:56 AM 35.6 °F - 19.4 °F 52% 30.07 in 10.0 mi Calm Calm - N/A   Clear
4:16 AM 33.8 °F - 21.2 °F 60% 30.07 in 10.0 mi Calm Calm - N/A   Clear
4:35 AM 33.8 °F - 21.2 °F 60% 30.07 in 10.0 mi Calm Calm - N/A   Clear
4:56 AM 33.8 °F - 21.2 °F 60% 30.07 in 10.0 mi Calm Calm - N/A   Clear
5:16 AM 33.8 °F - 21.2 °F 60% 30.08 in 10.0 mi Calm Calm - N/A   Clear
5:36 AM 32.0 °F 27.5 °F 19.4 °F 60% 30.08 in 10.0 mi SSE 4.6 mph - N/A   Clear
5:56 AM 32.0 °F - 19.4 °F 60% 30.08 in 10.0 mi Calm Calm - N/A   Clear
6:16 AM 30.2 °F - 19.4 °F 64% 30.09 in 10.0 mi Calm Calm - N/A   Clear
6:36 AM 32.0 °F 25.6 °F 19.4 °F 60% 30.09 in 10.0 mi SE 6.9 mph - N/A   Clear
6:56 AM 33.8 °F - 21.2 °F 60% 30.09 in 10.0 mi Calm Calm - N/A   Clear
7:16 AM 35.6 °F 31.7 °F 19.4 °F 52% 30.09 in 10.0 mi NNE 4.6 mph - N/A   Clear
7:36 AM 39.2 °F 37.0 °F 19.4 °F 45% 30.10 in 10.0 mi SSE 3.5 mph - N/A   Clear
7:56 AM 42.8 °F - 21.2 °F 42% 30.09 in 10.0 mi Calm Calm - N/A   Clear
8:16 AM 48.2 °F - 21.2 °F 34% 30.09 in 10.0 mi West 3.5 mph - N/A   Clear
8:36 AM 50.0 °F - 21.2 °F 32% 30.09 in 10.0 mi Calm Calm - N/A   Clear
8:56 AM 55.4 °F - 17.6 °F 23% 30.08 in 10.0 mi Calm Calm - N/A   Clear
9:16 AM 59.0 °F - 10.4 °F 15% 30.08 in 10.0 mi NW 4.6 mph - N/A   Clear
9:36 AM 60.8 °F - 8.6 °F 13% 30.07 in 10.0 mi West 8.1 mph - N/A   Clear
9:56 AM 64.4 °F - 3.2 °F 9% 30.06 in 10.0 mi West 11.5 mph 24.2 mph N/A   Clear
10:16 AM 66.2 °F - 3.2 °F 8% 30.06 in 10.0 mi West 16.1 mph 25.3 mph N/A   Clear
10:36 AM 66.2 °F - 3.2 °F 8% 30.05 in 10.0 mi WSW 11.5 mph 27.6 mph N/A   Clear
10:56 AM 66.2 °F - 1.4 °F 8% 30.04 in 10.0 mi West 19.6 mph 28.8 mph N/A   Clear
11:15 AM 69.8 °F - -0.4 °F 6% 30.04 in 10.0 mi SW 19.6 mph 26.5 mph N/A   Clear
11:36 AM 69.8 °F - -0.4 °F 6% 30.03 in 10.0 mi WSW 17.3 mph 25.3 mph N/A   Clear
12:16 PM 69.8 °F - 1.4 °F 7% 30.02 in 10.0 mi SSW 13.8 mph 28.8 mph N/A   Clear
12:36 PM 69.8 °F - 1.4 °F 7% 30.01 in 10.0 mi West 15.0 mph 27.6 mph N/A   Clear
12:56 PM 69.8 °F - 1.4 °F 7% 30.00 in 10.0 mi SW 15.0 mph 21.9 mph N/A   Clear
1:16 PM 69.8 °F - 1.4 °F 7% 30.00 in 10.0 mi SW 13.8 mph 25.3 mph N/A   Clear
1:36 PM 69.8 °F - -0.4 °F 6% 29.99 in 10.0 mi West 11.5 mph 23.0 mph N/A   Clear
1:56 PM 73.4 °F - 3.2 °F 6% 29.98 in 10.0 mi West 9.2 mph 18.4 mph N/A   Clear
2:16 PM 69.8 °F - -0.4 °F 6% 29.97 in 10.0 mi West 9.2 mph 25.3 mph N/A   Clear
2:56 PM 69.8 °F - -2.2 °F 6% 29.96 in 10.0 mi SW 13.8 mph 23.0 mph N/A   Clear
3:16 PM 69.8 °F - -4.0 °F 5% 29.96 in 10.0 mi SW 16.1 mph 25.3 mph N/A   Clear
3:36 PM 69.8 °F - -4.0 °F 5% 29.95 in 10.0 mi SSW 23.0 mph 28.8 mph N/A   Clear
3:56 PM 69.8 °F - -4.0 °F 5% 29.95 in 10.0 mi SSW 11.5 mph - N/A   Clear
4:16 PM 69.8 °F - -4.0 °F 5% 29.94 in 10.0 mi SSW 17.3 mph 27.6 mph N/A   Clear
4:36 PM 69.8 °F - -0.4 °F 6% 29.93 in 10.0 mi SW 16.1 mph 24.2 mph N/A   Clear
4:56 PM 69.8 °F - -4.0 °F 5% 29.92 in 10.0 mi SW 15.0 mph 24.2 mph N/A   Clear
5:16 PM 69.8 °F - -2.2 °F 6% 29.91 in 10.0 mi SW 15.0 mph 20.7 mph N/A   Clear
5:36 PM 69.8 °F - -2.2 °F 6% 29.91 in 10.0 mi SW 18.4 mph - N/A   Clear
5:56 PM 66.2 °F - -4.0 °F 6% 29.91 in 10.0 mi SW 18.4 mph 25.3 mph N/A   Clear
6:16 PM 66.2 °F - -4.0 °F 6% 29.91 in 10.0 mi SW 19.6 mph 29.9 mph N/A   Clear
6:36 PM 64.4 °F - -4.0 °F 6% 29.91 in 10.0 mi SW 18.4 mph 25.3 mph N/A   Clear
6:56 PM 64.4 °F - -4.0 °F 6% 29.91 in 10.0 mi WSW 21.9 mph 28.8 mph N/A   Clear
7:16 PM 62.6 °F - -5.8 °F 6% 29.91 in 10.0 mi WSW 15.0 mph 27.6 mph N/A   Clear
7:36 PM 62.6 °F - -5.8 °F 6% 29.91 in 10.0 mi SW 16.1 mph 19.6 mph N/A   Clear
7:56 PM 60.8 °F - -5.8 °F 7% 29.91 in 10.0 mi SW 12.7 mph 19.6 mph N/A   Clear
8:16 PM 60.8 °F - -5.8 °F 7% 29.92 in 10.0 mi SW 15.0 mph 21.9 mph N/A   Clear
8:36 PM 59.0 °F - -4.0 °F 8% 29.92 in 10.0 mi SW 12.7 mph 17.3 mph N/A   Clear
8:56 PM 59.0 °F - -0.4 °F 9% 29.92 in 10.0 mi SW 10.4 mph 17.3 mph N/A   Clear
9:16 PM 55.4 °F - 1.4 °F 11% 29.92 in 10.0 mi Calm Calm - N/A   Clear
9:36 PM 53.6 °F - 5.0 °F 14% 29.92 in 10.0 mi WNW 3.5 mph - N/A   Clear
9:55 PM 50.0 °F - 6.8 °F 17% 29.92 in 10.0 mi North 5.8 mph - N/A   Clear
10:16 PM 50.0 °F - 8.6 °F 19% 29.93 in 10.0 mi East 3.5 mph - N/A   Clear
10:36 PM 50.0 °F - 10.4 °F 20% 29.93 in 10.0 mi Calm Calm - N/A   Clear
10:55 PM 46.4 °F 44.3 °F 10.4 °F 23% 29.93 in 10.0 mi ESE 4.6 mph - N/A   Clear
11:16 PM 42.8 °F 41.1 °F 12.2 °F 29% 29.93 in 10.0 mi East 3.5 mph - N/A   Clear
11:36 PM 42.8 °F - 12.2 °F 29% 29.92 in 10.0 mi Calm Calm - N/A   Clear
11:56 PM 41.0 °F - 12.2 °F 31% 29.92 in 10.0 mi Calm Calm - N/A   Clear